INTELSAT 33E DEB, 64396

Orbit data source: Space-Track

INTELSAT 33E DEB, 64396 is space debris in GEO originally from a launch on Wed, 24 Aug 2016 UTC launched from the French Guiana (FRGUI). Debris objects in space refer to the collection of defunct objects orbiting the Earth. Examples of debris include non-operational satellites, rocket bodies, and fragments generated from explosions, collisions, or faulty payload assembly.

Not visible in the next 10 days
Identifier
64396, 2016-053AA
Orbit
GEO
Last TLE update
1 day ago
Origin
Flag of UnknownINTELU (Unknown / ITSO)
Manufacturer
Boeing/ES
Mission
Spacecraft
Bus & Motor
Unknown
Mass
Unknown
Launch date (UTC)
2016-08-24 (9 years ago)
Launch vehicle
Unknown
Launch site
French Guiana (FRGUI)
Object type
Payload
Rocket body
Debris
Shape & HBR
Unknown
Radar Cross Section
RCS unknown

Expand to show TLE details & history

TLE from 1 day ago
0 INTELSAT 33E DEB
1 64396U 16053AA  25181.27594571 -.00000287  00000-0  00000-0 0  9998
2 64396   0.6522  85.9681 0125258  49.3035 225.7350  0.98616014  2505
Epoch: 2025-06-30T06:37Z
TLE epoch observation values (Epoch: 2025-06-30T06:37:21.709Z)
Latitude
-0.65905°
Longitude
-17.92819°
Altitude
36,631.821 km
Speed
3.031 km/s
True Right ascension
00h 00m 00s
True Declination
0° 39' 30"
Sunlit
Object was in daylight at epoch
Visualization orbit readout
Latitude
-0.34319°
Longitude
35.41507°
Altitude
36,173.236 km
Speed
3.064 km/s
Apparent Right ascension
03h 59m 46s
Apparent Declination
-5° 53' 06"
Sunlit
Object is in daylight
Visualization observer readout
Local Sidereal Time
22:13:59
Azimuth
96.792° ESE
Elevation
-1.057°
Doppler factor
1
Orbital elements
Apogee altitude
36,792.365 km
Perigee altitude
35,724.254 km
Semi-major axis
42,636.446 km
Eccentricity
0.01253
Inclination
0.6522°
RAAN
85.9681°
Arg. of periapsis
49.3035°
True anomaly
Unknown
Mean anomaly
225.735°
Eccentric anomaly
Unknown
Mean motion
0.24653 °/min
Orbital period
1,460.26 mins
BSTAR
0
Loading historical data...
64396 neighbors
Loading maneuver chart data...
Loading SW <> Apogee altitude chart data...
Loading historical data...
Loading historical data...
Loading historical data...
Loading historical data...
Loading historical data...
Loading historical data...
Loading historical data...

INTELSAT 33E DEB Visibility

Observer location: undefined°, undefined°

INTELSAT 33E DEB is likely not visible in the next few days
Span
Click to sort rows by Start time (UTC) header in descending order
Start Az.
Max El. time (UTC)
Max El. Az.
Max El.
End time (UTC)
End Az.
|